User: anonymous   Login
Location: Brivio
(45.7333°N, 9.4500°E)
Time: 16:15:34
(UTC+00:00)
Language:

STARLINK-35 - Orbit

View from above orbital plane
View from above orbital plane
View from above satellite
View from above satellite

Ground track
Ground track

The orbit data is extracted from the following two-line orbital elements,

1 44264U 19029AF  19344.25002315 -.00028361  00000-0 -16168-2 0  9996
2 44264  53.0008 353.0445 0001177 109.9386  54.7279 15.12118637 30297
Epoch (UTC): 10 December 2019 06:00:02
Eccentricity: 0.0001177
inclination: 53.0008°
perigee height: 529 km
apogee height: 530 km
right ascension of ascending node: 353.0445°
argument of perigee: 109.9386°
revolutions per day: 15.12118637
mean anomaly at epoch: 54.7279°
orbit number at epoch: 3029

The dashed part of the orbit path shows where the satellite is in the earth's shadow,  

DLR